{"data":{"norad_id":47270,"intl_designator":"2020-100N","name":"ONEWEB-0124","alt_names":[],"object_type":"PAYLOAD","status":"ACTIVE","operator":null,"country":"UK","launch_date":"2020-12-18","launch_site_code":"VOSTO","launch_vehicle":null,"mission":null,"orbit_class":"UNKNOWN","rcs_meters":null,"size_class":null,"mass_kg":null,"dimensions":null,"purposes":["comms"],"wikipedia_slug":null,"has_3d_model":false,"image_url":null,"decayed_at":null,"tle_current":{"epoch":"2026-05-25T02:19:22.923840Z","epoch_age_seconds":60062,"freshness":"FRESH","line1":"1 47270U 20100N   26145.09679310  .00000255  00000+0  67221-3 0  9998","line2":"2 47270  87.8948 355.2657 0001865  83.9414 276.1927 13.12443370261548","mean_motion":13.1244337,"eccentricity":0.0001865,"inclination_deg":87.8948,"raan_deg":355.2657,"arg_perigee_deg":83.9414,"mean_anomaly_deg":276.1927,"bstar":0.00067221,"rev_number":26154,"period_min":109.71901972426,"perigee_km":1212.3059825202,"apogee_km":1215.1377458766,"semimajor_km":7591.8588641984,"source":"CELESTRAK","updated_at":"2026-05-25T13:38:22.381562Z"}}}